• In Belarus
  • List of Countries
  • For 7 days
  • Water Temperature
  • Satellite Maps
  • Weather Map
  • Weather Widgets
  • user-avatar
    Login

    Hourly Weather Wodniki

    Today, 19 February, Tuesday

    Time Temperature Precipitation Wind Pressure Humidity
    00:00 +5°C° 0 mm 2 mps 753 mmHg 66%
    01:00 +5°C° 0 mm 2 mps 753 mmHg 67%
    02:00 +4°C° 0 mm 2 mps 753 mmHg 67%
    03:00 +4°C° 0 mm 2 mps 752 mmHg 67%
    04:00 +4°C° 0 mm 2 mps 752 mmHg 67%
    05:00 +3°C° 0 mm 2 mps 752 mmHg 68%
    06:00 +2°C° 0 mm 3 mps 752 mmHg 68%
    07:00 +2°C° 0 mm 2 mps 751 mmHg 68%
    08:00 +3°C° 0 mm 3 mps 751 mmHg 64%
    09:00 +5°C° 0 mm 4 mps 751 mmHg 59%
    10:00 +7°C° 0 mm 5 mps 751 mmHg 55%
    11:00 +8°C° 0 mm 5 mps 751 mmHg 55%
    12:00 +9°C° 0 mm 6 mps 751 mmHg 55%
    13:00 +11°C° 0 mm 6 mps 751 mmHg 55%
    14:00 +10°C° 0 mm 6 mps 751 mmHg 58%
    15:00 +10°C° 0 mm 5 mps 751 mmHg 62%
    16:00 +10°C° 0 mm 5 mps 751 mmHg 65%
    17:00 +9°C° 0 mm 5 mps 751 mmHg 69%
    18:00 +8°C° 0 mm 4 mps 751 mmHg 74%
    19:00 +7°C° 0 mm 4 mps 751 mmHg 78%
    20:00 +6°C° 0 mm 4 mps 752 mmHg 79%
    21:00 +6°C° 0 mm 4 mps 752 mmHg 80%
    22:00 +5°C° 0 mm 4 mps 752 mmHg 81%
    23:00 +5°C° 0 mm 4 mps 752 mmHg 81%

    Tomorrow, 20 February, Wednesday

    Time Temperature Precipitation Wind Pressure Humidity
    00:00 +3°C° 0 mm 5 mps 752 mmHg 80%
    01:00 +3°C° 0 mm 5 mps 753 mmHg 80%
    02:00 +3°C° 0 mm 5 mps 753 mmHg 81%
    03:00 +3°C° 0 mm 5 mps 753 mmHg 83%
    04:00 +3°C° 0 mm 5 mps 753 mmHg 84%
    05:00 +3°C° 0 mm 5 mps 753 mmHg 84%
    06:00 +2°C° 0 mm 5 mps 753 mmHg 85%
    07:00 +2°C° 0 mm 5 mps 754 mmHg 86%
    08:00 +3°C° 0 mm 5 mps 754 mmHg 84%
    09:00 +3°C° 0 mm 5 mps 755 mmHg 81%
    10:00 +3°C° 0 mm 5 mps 755 mmHg 79%
    11:00 +4°C° 0 mm 6 mps 755 mmHg 75%
    12:00 +5°C° 0 mm 6 mps 755 mmHg 71%
    13:00 +7°C° 0 mm 6 mps 755 mmHg 67%
    14:00 +5°C° 0 mm 6 mps 756 mmHg 67%
    15:00 +6°C° 0 mm 5 mps 756 mmHg 68%
    16:00 +6°C° 0 mm 5 mps 756 mmHg 68%
    17:00 +6°C° 0 mm 4 mps 756 mmHg 71%
    18:00 +7°C° 0 mm 3 mps 757 mmHg 74%
    19:00 +5°C° 0 mm 3 mps 757 mmHg 77%
    20:00 +5°C° 0.1 mm 3 mps 757 mmHg 78%
    21:00 +5°C° 0.1 mm 3 mps 757 mmHg 79%
    22:00 +5°C° 0.1 mm 3 mps 757 mmHg 80%
    23:00 +5°C° 0 mm 3 mps 758 mmHg 81%

    Day after tomorrow, 21 February, Thursday

    Time Temperature Precipitation Wind Pressure Humidity
    00:00 +5°C° 0 mm 3 mps 758 mmHg 81%
    01:00 +5°C° 0 mm 3 mps 758 mmHg 81%
    02:00 +4°C° 0.1 mm 3 mps 758 mmHg 81%
    03:00 +4°C° 0.1 mm 4 mps 757 mmHg 80%
    04:00 +4°C° 0.1 mm 4 mps 757 mmHg 79%
    05:00 +4°C° 0.2 mm 4 mps 757 mmHg 80%
    06:00 +3°C° 0.2 mm 5 mps 757 mmHg 81%
    07:00 +3°C° 0.2 mm 5 mps 757 mmHg 82%
    08:00 +5°C° 0.2 mm 5 mps 757 mmHg 81%
    09:00 +4°C° 0.2 mm 6 mps 757 mmHg 81%
    10:00 +5°C° 0.2 mm 6 mps 757 mmHg 80%
    11:00 +5°C° 0.1 mm 6 mps 757 mmHg 76%
    12:00 +7°C° 0.1 mm 6 mps 757 mmHg 72%
    13:00 +8°C° 0.1 mm 6 mps 757 mmHg 69%
    14:00 +8°C° 0.3 mm 6 mps 756 mmHg 71%
    15:00 +7°C° 0.3 mm 5 mps 756 mmHg 74%
    16:00 +7°C° 0.3 mm 5 mps 756 mmHg 76%
    17:00 +7°C° 1.5 mm 5 mps 756 mmHg 80%
    18:00 +5°C° 1.5 mm 6 mps 756 mmHg 84%
    19:00 +5°C° 1.5 mm 6 mps 756 mmHg 88%
    20:00 +5°C° 0.2 mm 6 mps 756 mmHg 88%
    21:00 +5°C° 0.2 mm 6 mps 756 mmHg 88%
    22:00 +7°C° 0.2 mm 6 mps 756 mmHg 89%
    23:00 +7°C° 0.4 mm 6 mps 756 mmHg 89%

    22 February, Friday

    Time Temperature Precipitation Wind Pressure Humidity
    00:00 +7°C° 0.4 mm 6 mps 757 mmHg 89%
    01:00 +7°C° 0.4 mm 6 mps 757 mmHg 89%
    02:00 +5°C° 0.2 mm 6 mps 757 mmHg 88%
    03:00 +5°C° 0.2 mm 6 mps 758 mmHg 87%
    04:00 +5°C° 0.2 mm 7 mps 759 mmHg 86%
    05:00 +3°C° 0 mm 6 mps 760 mmHg 84%
    06:00 +2°C° 0 mm 6 mps 761 mmHg 82%
    07:00 -1°C° 0 mm 6 mps 762 mmHg 80%
    08:00 -1°C° 0 mm 6 mps 763 mmHg 75%
    09:00 0°C° 0 mm 5 mps 764 mmHg 71%
    10:00 0°C° 0 mm 5 mps 765 mmHg 66%
    11:00 0°C° 0 mm 4 mps 765 mmHg 61%
    12:00 +1°C° 0 mm 4 mps 766 mmHg 57%
    13:00 +1°C° 0 mm 4 mps 766 mmHg 52%
    14:00 +1°C° 0 mm 4 mps 767 mmHg 52%
    15:00 +1°C° 0 mm 4 mps 767 mmHg 52%
    16:00 +1°C° 0 mm 4 mps 768 mmHg 52%
    17:00 +1°C° 0 mm 3 mps 768 mmHg 56%
    18:00 0°C° 0 mm 3 mps 769 mmHg 59%
    19:00 -1°C° 0 mm 2 mps 769 mmHg 63%
    20:00 -2°C° 0 mm 2 mps 770 mmHg 62%
    21:00 -2°C° 0 mm 2 mps 770 mmHg 62%
    22:00 -2°C° 0 mm 2 mps 770 mmHg 61%
    23:00 -2°C° 0 mm 2 mps 770 mmHg 60%

    23 February, Saturday

    Time Temperature Precipitation Wind Pressure Humidity
    00:00 0°C° 0 mm 1 mps 770 mmHg 59%
    01:00 0°C° 0 mm 1 mps 770 mmHg 57%
    02:00 0°C° 0 mm 1 mps 770 mmHg 57%
    03:00 0°C° 0 mm 1 mps 770 mmHg 57%
    04:00 -2°C° 0 mm 0 mps 770 mmHg 57%
    05:00 -2°C° 0 mm 0 mps 770 mmHg 57%
    06:00 -2°C° 0 mm 0 mps 770 mmHg 58%
    07:00 -2°C° 0 mm 0 mps 770 mmHg 58%
    08:00 -1°C° 0 mm 0 mps 770 mmHg 52%
    09:00 0°C° 0 mm 0 mps 770 mmHg 46%
    10:00 +1°C° 0 mm 0 mps 770 mmHg 40%
    11:00 +2°C° 0 mm 0 mps 769 mmHg 38%
    12:00 +2°C° 0 mm 0 mps 769 mmHg 35%
    13:00 +3°C° 0 mm 0 mps 768 mmHg 32%
    14:00 +3°C° 0 mm 0 mps 768 mmHg 34%
    15:00 +3°C° 0 mm 0 mps 768 mmHg 36%
    16:00 +4°C° 0 mm 1 mps 767 mmHg 38%
    17:00 +3°C° 0 mm 1 mps 767 mmHg 40%
    18:00 +3°C° 0 mm 1 mps 768 mmHg 42%
    19:00 +2°C° 0 mm 1 mps 768 mmHg 45%
    20:00 +2°C° 0 mm 1 mps 768 mmHg 45%
    21:00 +1°C° 0 mm 0 mps 768 mmHg 46%
    22:00 0°C° 0 mm 0 mps 767 mmHg 47%
    23:00 0°C° 0 mm 0 mps 768 mmHg 47%

    24 February, Sunday

    Time Temperature Precipitation Wind Pressure Humidity
    00:00 0°C° 0 mm 0 mps 768 mmHg 47%
    01:00 0°C° 0 mm 0 mps 768 mmHg 47%
    02:00 0°C° 0 mm 0 mps 768 mmHg 48%
    03:00 0°C° 0 mm 0 mps 768 mmHg 48%
    04:00 -1°C° 0 mm 0 mps 768 mmHg 49%
    05:00 -1°C° 0 mm 0 mps 768 mmHg 49%
    06:00 -1°C° 0 mm 0 mps 768 mmHg 50%
    07:00 -1°C° 0 mm 0 mps 768 mmHg 50%
    08:00 +1°C° 0 mm 1 mps 769 mmHg 48%
    09:00 +3°C° 0 mm 1 mps 769 mmHg 45%
    10:00 +4°C° 0 mm 1 mps 769 mmHg 43%
    11:00 +5°C° 0 mm 1 mps 769 mmHg 44%
    12:00 +5°C° 0 mm 1 mps 769 mmHg 46%
    13:00 +6°C° 0 mm 1 mps 769 mmHg 47%
    14:00 +5°C° 0 mm 0 mps 769 mmHg 49%
    15:00 +5°C° 0 mm 0 mps 769 mmHg 52%
    16:00 +5°C° 0 mm 0 mps 768 mmHg 54%
    17:00 +4°C° 0 mm 0 mps 768 mmHg 58%
    18:00 +3°C° 0 mm 0 mps 769 mmHg 62%
    19:00 +3°C° 0 mm 1 mps 769 mmHg 66%
    20:00 +3°C° 0 mm 1 mps 769 mmHg 68%
    21:00 +2°C° 0 mm 1 mps 769 mmHg 69%
    22:00 +2°C° 0 mm 1 mps 769 mmHg 71%
    23:00 +2°C° 0 mm 1 mps 769 mmHg 72%
    Show more